Retour au catalogue

TIROS 2 DEB *

ActifLEO
NORAD 5922·DEBRIS·🇺🇸 United States

Lancé Nov 23, 1960 depuis Cape Canaveral Space Force Station

Loading…

Prochains Passages (prochaines 24 heures)

TLE

FraisSource: Space-Track

Époque: Sep 14, 2026, 02:05 UTC

1 05922U 60016E   26257.08701345 -.00000058  00000-0  80914-4 0  9991
2 05922  47.0304 150.6704 0040837 351.8542 149.3860 13.70075978763634

Suivez TIROS 2 DEB * en temps réel avec AllMySat

Download on the App Store